Flag for Canada Weather past 2 weeks in Glace Bay, Nova Scotia, Canada

Now
70 °F

Fog.


Feels Like: 70 °F
Forecast: 66 / 75 °F
Wind: 8 mph from South

Location: Sydney

Current Time: Jul 31, 2014 at 1:02:12 AM

Latest Report: Jul 31, 2014 at 12:00 AM


Visibility: 4 mi

Pressure: 30.16 "Hg

Humidity: 94%

Dew point: 68 °F

Location of Glace BayLocation

Historic Weather in Glace Bay — Graph

°F

Glace Bay temperature yesterday

Maximum temperature yesterday: 81 °F (at 2:00 PM)
Minimum temperature yesterday: 66 °F (at 2:00 AM)
Average temperature yesterday: 72 °F

Past Weeks' High & Low Weather Summary

 TemperatureHumidityPressure
High86 °F (Jul 23, 2:00 PM)100% (Jul 18, 12:00 AM)30.31 "Hg (Jul 18, 12:00 AM)
Low52 °F (Jul 20, 3:00 AM)31% (Jul 19, 4:00 PM)29.74 "Hg (Jul 25, 3:00 AM)
Average69 °F77%29.99 "Hg
* Reported Midnight between Jul 15 and Jul 16 — Midnight between Jul 30 and Jul 31, Glace Bay, Weather by CustomWeather, © 2014

Note: Actual official high and low records may vary slightly from our data, if they occured in-between our weather recording intervals... More about our weather records

Advertising

Glace Bay weather history for previous 24 hours

 ConditionsComfort  
Time TempWeatherWind HumidityBarometerVisibility
12:00 AM
Jul 31
70 °FFog.8 mph94%30.16 "Hg4 mi
11:00 PM
Jul 30
68 °FFog.6 mph94%30.16 "Hg5 mi
10:00 PM68 °FFog.9 mph100%30.17 "Hg2 mi
9:00 PM68 °FFog.13 mph94%30.16 "Hg5 mi
8:00 PM70 °FPartly sunny.5 mph94%30.15 "Hg10 mi
7:54 PMN/APartly sunny.6 mphN/AN/A10 mi
7:00 PM73 °FScattered clouds.14 mph83%30.14 "Hg15 mi
6:00 PM79 °FScattered clouds.12 mph70%30.11 "Hg15 mi
5:00 PM81 °FBroken clouds.14 mph66%30.12 "Hg15 mi
4:00 PM81 °FBroken clouds.13 mph66%30.12 "Hg15 mi
3:00 PM81 °FPartly sunny.14 mph58%30.12 "Hg15 mi
2:00 PM81 °FPassing clouds.12 mph62%30.12 "Hg15 mi
1:00 PM79 °FPassing clouds.12 mph65%30.11 "Hg15 mi
12:00 PM79 °FScattered clouds.13 mph65%30.11 "Hg15 mi
11:00 AM75 °FPartly sunny.10 mph78%30.10 "Hg15 mi
10:00 AM73 °FPartly sunny.9 mph83%30.10 "Hg15 mi
9:00 AM72 °FPartly sunny.12 mph83%30.09 "Hg10 mi
8:00 AM70 °FFog.7 mph94%30.07 "Hg6 mi
7:00 AM68 °FFog.3 mph100%30.07 "Hg1 mi
6:00 AM68 °FFog.3 mph94%30.06 "Hg1 mi
5:00 AM66 °FFog.7 mph100%30.04 "Hg5 mi
4:00 AM66 °FFog.7 mph100%30.04 "Hg1 mi
3:00 AM66 °FFog.7 mph100%30.03 "Hg1 mi
2:00 AM66 °FFog.9 mph100%30.03 "Hg6 mi
1:53 AMN/AFog.10 mphN/AN/A5 mi
1:00 AM68 °FFog.9 mph94%30.01 "Hg5 mi
Weather by CustomWeather, © 2014

See weather overviewHow to use our weather pages